CW5404 Weather Reports


time (UTC)temp
F
wind
direction
speed
knots
gust
knots
rain 1hr
in
rain 24hr
in
rain mn
in
humidity
%
barometer
mb
20260902224505 60 360 2.6 3.5 0.05 0.56 0.56 100 1006.4
20260902224005 60 360 0.9 3.5 0.06 0.56 0.56 100 1006.4
20260902223505 59 360 1.7 3.5 0.07 0.56 0.56 99 1006.4
20260902221006 59 227 0.9 3.5 0.08 0.55 0.55 100 1006.3
20260902220505 59 219 3.5 4.3 0.08 0.55 0.55 100 1006.3
20260902220005 59 205 0.0 6.1 0.07 0.54 0.54 100 1006.3
20260902215505 59 172 0.9 7.8 0.06 0.52 0.52 100 1006.2
20260902215005 59 238 6.1 7.8 0.05 0.51 0.51 100 1006.2
20260902214505 59 203 5.2 8.7 0.06 0.51 0.51 100 1006.2
20260902213505 60 196 1.7 6.1 0.05 0.49 0.49 100 1006.2
20260902213006 60 205 5.2 6.1 0.06 0.49 0.49 100 1006.2
20260902212505 60 197 3.5 6.1 0.07 0.49 0.49 100 1005.9
20260902211505 59 197 3.5 7.8 0.08 0.49 0.49 100 1005.9
20260902211005 59 214 1.7 7.8 0.07 0.47 0.47 100 1006.0
20260902210505 59 174 1.7 7.0 0.07 0.47 0.47 100 1006.0
20260902210005 59 199 4.3 7.0 0.08 0.47 0.47 100 1006.0
20260902205005 59 198 4.3 6.1 0.08 0.46 0.46 100 1005.8
20260902204505 59 217 3.5 6.1 0.07 0.45 0.45 100 1005.8
20260902203005 58 221 3.5 8.7 0.07 0.43 0.43 100 1005.8
20260902202005 59 225 1.7 7.8 0.06 0.41 0.41 100 1005.7
20260902201504 58 192 1.7 7.8 0.07 0.41 0.41 100 1005.7
20260902201005 58 185 2.6 7.8 0.08 0.40 0.40 100 1005.6
20260902200504 58 200 4.3 7.8 0.10 0.40 0.40 100 1005.6
20260902200005 58 217 4.3 7.8 0.10 0.39 0.39 100 1005.6
20260902195005 58 211 5.2 9.6 0.10 0.38 0.38 100 1005.6
20260902194504 58 148 3.5 9.6 0.11 0.38 0.38 100 1005.6
20260902194004 58 194 4.3 9.6 0.10 0.37 0.37 100 1005.5
20260902193504 58 188 2.6 10.4 0.12 0.37 0.37 99 1005.5
20260902193005 58 190 6.1 10.4 0.12 0.36 0.36 98 1005.5
20260902192004 58 179 5.2 9.6 0.12 0.35 0.35 97 1005.5
20260902191504 58 198 5.2 10.4 0.12 0.34 0.34 96 1005.5
20260902191004 58 204 3.5 10.4 0.11 0.32 0.32 95 1005.7
20260902190504 58 157 3.5 10.4 0.10 0.30 0.30 95 1005.7
20260902190004 58 214 5.2 10.4 0.10 0.29 0.29 94 1005.7
20260902185505 58 218 6.1 6.1 0.11 0.28 0.28 95 1005.7
20260902185004 57 188 2.6 7.0 0.14 0.28 0.28 94 1005.7
20260902184504 57 197 2.6 7.0 0.14 0.27 0.27 94 1005.7
20260902184004 57 192 1.7 7.8 0.16 0.27 0.27 93 1005.6
20260902183504 57 213 4.3 9.6 0.15 0.25 0.25 92 1005.6
20260902183004 57 219 7.0 9.6 0.15 0.24 0.24 92 1005.6
20260902182004 57 153 4.3 9.6 0.15 0.23 0.23 92 1005.8
20260902181504 57 202 3.5 7.8 0.14 0.22 0.22 92 1005.8
20260902181004 58 190 2.6 6.1 0.13 0.21 0.21 92 1005.9
20260902180504 58 192 2.6 6.1 0.13 0.20 0.20 91 1005.9
20260902180006 58 209 3.5 6.1 0.12 0.19 0.19 91 1005.9
20260902175004 58 200 1.7 4.3 0.09 0.14 0.14 90 1005.7
20260902174504 58 196 0.0 4.3 0.08 0.13 0.13 89 1005.7
20260902174004 58 210 0.0 4.3 0.07 0.11 0.11 89 1006.1
20260902172503 58 186 1.7 6.1 0.06 0.08 0.08 89 1006.1
20260902172004 58 139 2.6 7.0 0.06 0.08 0.08 89 1006.1
20260902171503 58 186 2.6 7.0 0.07 0.08 0.08 88 1006.1
20260902171003 58 234 5.2 7.8 0.07 0.08 0.08 88 1006.2
20260902170504 58 230 0.9 7.8 0.07 0.07 0.07 88 1006.2
20260902170004 58 213 4.3 7.8 0.07 0.07 0.07 88 1006.2
20260902165504 58 197 0.9 6.1 0.06 0.06 0.06 87 1006.3
20260902164003 58 194 4.3 7.0 0.04 0.04 0.04 86 1006.3
20260902163504 59 207 2.6 5.2 0.04 0.04 0.04 86 1006.3
20260902162503 59 218 0.0 6.1 0.02 0.02 0.02 85 1006.2
20260902162004 59 246 1.7 6.1 0.02 0.02 0.02 84 1006.2
20260902161003 59 214 5.2 7.0 0.01 0.01 0.01 83 1006.1
20260902160503 59 211 2.6 7.0 0.00 0.00 0.00 83 1006.1
20260902155503 60 189 1.7 4.3 0.00 0.00 0.00 83 1006.1
20260902155004 60 202 3.5 4.3 0.00 0.00 0.00 83 1006.1
20260902154503 60 185 0.9 3.5 0.00 0.00 0.00 83 1006.1
20260902153503 60 176 2.6 3.5 0.00 0.00 0.00 83 1006.2
20260902153003 60 178 0.0 3.5 0.00 0.00 0.00 83 1006.2
20260902152503 60 154 0.0 2.6 0.00 0.00 0.00 83 1006.3
20260902152003 60 148 0.9 3.5 0.00 0.00 0.00 82 1006.3
20260902151503 60 153 0.9 3.5 0.00 0.00 0.00 82 1006.3
20260902151003 60 154 1.7 2.6 0.00 0.00 0.00 82 1006.4
20260902150503 60 186 0.9 4.3 0.00 0.00 0.00 83 1006.4
20260902150003 60 188 0.9 4.3 0.00 0.00 0.00 83 1006.4
20260902145503 60 176 0.0 1.7 0.00 0.00 0.00 83 1006.6
20260902145003 60 168 0.0 3.5 0.00 0.00 0.00 83 1006.6
20260902144503 59 207 0.0 3.5 0.00 0.00 0.00 83 1006.6
20260902143503 59 156 1.7 4.3 0.00 0.00 0.00 83 1006.7
20260902143003 59 161 1.7 3.5 0.00 0.00 0.00 83 1006.7
20260902142003 60 174 2.6 5.2 0.00 0.00 0.00 82 1006.9
20260902141502 60 181 2.6 5.2 0.00 0.00 0.00 81 1006.9
20260902141002 60 196 2.6 5.2 0.00 0.00 0.00 81 1007.0
20260902140502 60 210 0.9 5.2 0.00 0.00 0.00 80 1007.0
20260902135502 60 172 0.9 1.7 0.00 0.00 0.00 79 1007.0
20260902135003 60 174 0.0 4.3 0.00 0.00 0.00 79 1007.0
20260902134503 60 179 0.0 4.3 0.00 0.00 0.00 79 1007.0
20260902134002 60 182 0.0 3.5 0.00 0.00 0.00 79 1007.3
20260902133502 60 180 0.0 3.5 0.00 0.00 0.00 79 1007.3
20260902132502 60 202 1.7 5.2 0.00 0.00 0.00 79 1007.4
20260902132002 60 165 1.7 6.1 0.00 0.00 0.00 79 1007.4
20260902131502 60 168 1.7 6.1 0.00 0.00 0.00 79 1007.4
20260902131002 60 184 3.5 5.2 0.00 0.00 0.00 79 1007.6
20260902130002 60 181 2.6 6.1 0.00 0.00 0.00 79 1007.6
20260902125502 60 197 1.7 6.1 0.00 0.00 0.00 79 1007.9
20260902124502 60 203 5.2 6.1 0.00 0.00 0.00 79 1007.9
20260902123001 60 226 3.5 3.5 0.00 0.00 0.00 80 1008.0
20260902122502 59 215 1.7 4.3 0.00 0.00 0.00 80 1008.2
20260902122001 59 194 1.7 4.3 0.00 0.00 0.00 80 1008.2
20260902121001 59 203 0.9 2.6 0.00 0.00 0.00 80 1008.4
20260902120501 59 180 0.0 1.7 0.00 0.00 0.00 80 1008.4
20260902120002 59 180 0.9 1.7 0.00 0.00 0.00 80 1008.4
20260902115501 59 173 1.7 2.6 0.00 0.00 0.00 80 1008.6
20260902114501 59 136 0.9 3.5 0.00 0.00 0.00 79 1008.6
20260902114001 59 155 1.7 2.6 0.00 0.00 0.00 79 1008.8
20260902113501 60 190 0.9 3.5 0.00 0.00 0.00 79 1008.8
20260902113001 59 205 1.7 3.5 0.00 0.00 0.00 79 1008.8
20260902112501 59 181 1.7 3.5 0.00 0.00 0.00 79 1009.0
20260902112001 59 193 1.7 3.5 0.00 0.00 0.00 79 1009.0
20260902111501 59 144 2.6 3.5 0.00 0.00 0.00 80 1009.0
20260902111001 59 210 2.6 3.5 0.00 0.00 0.00 80 1009.2
20260902110001 59 202 2.6 3.5 0.00 0.00 0.00 79 1009.2
20260902105501 60 203 0.9 4.3 0.00 0.00 0.00 79 1009.5
20260902105001 60 159 1.7 4.3 0.00 0.00 0.00 78 1009.5
20260902104501 60 159 0.0 3.5 0.00 0.00 0.00 78 1009.5
20260902104001 60 160 0.0 4.3 0.00 0.00 0.00 77 1009.6
20260902103500 60 176 0.9 4.3 0.00 0.00 0.00 77 1009.6
20260902103000 60 173 2.6 4.3 0.00 0.00 0.00 77 1009.6
20260902102500 60 211 2.6 5.2 0.00 0.00 0.00 77 1009.7
20260902102000 60 218 2.6 6.1 0.00 0.00 0.00 78 1009.7
20260902101501 60 221 1.7 6.1 0.00 0.00 0.00 78 1009.7
20260902101001 59 200 3.5 3.5 0.00 0.00 0.00 79 1009.7
20260902100500 59 184 0.9 2.6 0.00 0.00 0.00 79 1009.7
20260902100000 59 185 0.9 3.5 0.00 0.00 0.00 80 1009.7
20260902095000 59 157 0.9 2.6 0.00 0.00 0.00 80 1009.9
20260902094501 59 183 0.9 2.6 0.00 0.00 0.00 80 1009.9
20260902093500 59 182 1.7 4.3 0.00 0.00 0.00 80 1010.0
20260902093000 59 161 2.6 4.3 0.00 0.00 0.00 81 1010.0
20260902092500 59 185 1.7 3.5 0.00 0.00 0.00 80 1010.0
20260902091500 59 186 1.7 4.3 0.00 0.00 0.00 80 1010.0
20260902091000 59 189 2.6 4.3 0.00 0.00 0.00 79 1010.1
20260902090500 59 190 0.9 3.5 0.00 0.00 0.00 79 1010.1
20260902090001 60 187 0.9 4.3 0.00 0.00 0.00 79 1010.1
20260902085501 60 201 0.9 4.3 0.00 0.00 0.00 79 1010.4
20260902084500 59 198 0.0 3.5 0.00 0.00 0.00 79 1010.4
20260902084001 59 185 1.7 5.2 0.00 0.00 0.00 79 1010.4
20260902083500 60 199 1.7 5.2 0.00 0.00 0.00 79 1010.4
20260902082500 60 182 0.0 1.7 0.00 0.00 0.00 80 1010.5
20260902081500 60 215 1.7 4.3 0.00 0.00 0.00 80 1010.5
20260902081000 59 192 1.7 5.2 0.00 0.00 0.00 80 1010.5
20260902080500 59 206 0.9 5.2 0.00 0.00 0.00 81 1010.5
20260902080000 59 199 2.6 2.6 0.00 0.00 0.00 82 1010.5
20260902075500 59 209 0.0 1.7 0.00 0.00 0.00 82 1010.6
20260902074500 59 199 0.0 2.6 0.00 0.00 0.00 84 1010.6
20260902074000 59 198 0.0 2.6 0.00 0.00 0.00 84 1010.8
20260902072500 59 196 0.0 0.0 0.00 0.00 0.00 83 1010.9
20260902071459 59 196 0.0 0.9 0.00 0.00 0.00 83 1010.9
20260902070500 60 196 0.9 5.2 0.00 0.00 0.00 82 1010.9
20260902065959 60 207 2.6 5.2 0.00 0.00 0.00 82 1010.9
20260902065459 60 188 0.9 4.3 0.00 0.00 0.00 82 1011.0
20260902064959 60 214 1.7 4.3 0.00 0.00 0.00 82 1011.0
20260902064459 60 220 2.6 4.3 0.00 0.00 0.00 82 1011.0
20260902063959 60 214 1.7 4.3 0.00 0.00 0.00 82 1011.1
20260902063459 60 196 1.7 5.2 0.00 0.00 0.00 82 1011.1
20260902062959 60 211 2.6 5.2 0.00 0.00 0.00 82 1011.1
20260902062459 60 189 3.5 4.3 0.00 0.00 0.00 82 1011.1
20260902061959 60 229 2.6 4.3 0.00 0.00 0.00 82 1011.1
20260902060959 60 207 1.7 4.3 0.00 0.00 0.00 82 1011.3
20260902060459 60 47 0.0 4.3 0.00 0.00 0.00 81 1011.3
20260902055959 61 212 2.6 4.3 0.00 0.00 0.00 81 1011.3
20260902055459 61 223 0.9 5.2 0.00 0.00 0.00 81 1011.5
20260902054959 61 202 0.9 5.2 0.00 0.00 0.00 79 1011.5
20260902054459 61 207 3.5 6.1 0.00 0.00 0.00 79 1011.5
20260902053459 61 211 3.5 5.2 0.00 0.00 0.00 78 1011.5
20260902052959 62 211 0.0 6.1 0.00 0.00 0.00 78 1011.6
20260902052459 62 265 3.5 6.1 0.00 0.00 0.00 78 1011.6
20260902051958 62 206 2.6 8.7 0.00 0.00 0.00 78 1011.6
20260902051458 62 214 2.6 8.7 0.00 0.00 0.00 78 1011.6
20260902050958 62 217 7.0 7.0 0.00 0.00 0.00 77 1011.6
20260902045959 61 190 4.3 5.2 0.00 0.00 0.00 77 1011.5
20260902045459 61 188 0.0 0.0 0.00 0.00 0.00 77 1011.6
20260902044959 61 188 0.0 0.0 0.00 0.00 0.00 77 1011.6
20260902043958 61 188 0.0 2.6 0.00 0.00 0.00 77 1011.5
20260902043458 61 188 1.7 4.3 0.00 0.00 0.00 77 1011.5
20260902042958 62 183 0.0 4.3 0.00 0.00 0.00 76 1011.6
20260902042458 62 190 1.7 3.5 0.00 0.00 0.00 76 1011.7
20260902040958 62 211 0.9 2.6 0.00 0.00 0.00 75 1011.6
20260902040458 62 210 0.0 2.6 0.00 0.00 0.00 75 1011.6
20260902035958 62 211 1.7 2.6 0.00 0.00 0.00 74 1011.6
20260902035458 62 256 0.0 0.0 0.00 0.00 0.00 74 1011.5
20260902034458 62 257 0.0 0.0 0.00 0.00 0.00 73 1011.5
20260902033958 62 257 0.0 0.0 0.00 0.00 0.00 72 1011.5
20260902033458 63 257 0.0 0.0 0.00 0.00 0.00 72 1011.5
20260902032958 63 257 0.0 0.0 0.00 0.00 0.00 72 1011.5
20260902032458 63 257 0.0 0.0 0.00 0.00 0.00 72 1011.4
20260902031958 63 260 0.0 0.0 0.00 0.00 0.00 71 1011.4
20260902031458 63 261 0.0 0.9 0.00 0.00 0.00 71 1011.4
20260902030957 63 262 0.0 1.7 0.00 0.00 0.00 70 1011.5
20260902030457 63 262 0.9 2.6 0.00 0.00 0.00 70 1011.5
20260902025957 63 232 0.0 2.6 0.00 0.00 0.00 70 1011.5
20260902025457 64 13 0.9 2.6 0.00 0.00 0.00 69 1011.6
20260902024958 64 337 0.9 2.6 0.00 0.00 0.00 69 1011.6
20260902023958 64 275 1.7 3.5 0.00 0.00 0.00 68 1011.4
20260902023458 64 344 1.7 3.5 0.00 0.00 0.00 67 1011.4
20260902022957 65 329 0.9 2.6 0.00 0.00 0.00 67 1011.4
20260902022457 65 5 0.9 2.6 0.00 0.00 0.00 66 1011.3
20260902021957 65 313 1.7 2.6 0.00 0.00 0.00 66 1011.3
20260902021457 65 19 0.9 4.3 0.00 0.00 0.00 66 1011.3
20260902020957 65 303 1.7 4.3 0.00 0.00 0.00 66 1011.4
20260902020457 65 221 4.3 5.2 0.00 0.00 0.00 65 1011.4
20260902015957 66 122 1.7 6.1 0.00 0.00 0.00 65 1011.4
20260902015457 66 360 1.7 6.1 0.00 0.00 0.00 64 1011.2
20260902014957 66 360 0.0 5.2 0.00 0.00 0.00 64 1011.2
20260902014457 66 360 0.9 4.3 0.00 0.00 0.00 63 1011.2
20260902013957 66 360 0.9 4.3 0.00 0.00 0.00 64 1011.1
20260902013457 66 360 1.7 4.3 0.00 0.00 0.00 65 1011.1
20260902012957 66 360 1.7 2.6 0.00 0.00 0.00 65 1011.1
20260902012457 66 360 0.9 2.6 0.00 0.00 0.00 66 1011.2
20260902011957 66 360 0.0 3.5 0.00 0.00 0.00 66 1011.2
20260902011457 65 360 1.7 3.5 0.00 0.00 0.00 66 1011.2
20260902010957 66 360 1.7 3.5 0.00 0.00 0.00 66 1011.1
20260902010457 66 360 1.7 3.5 0.00 0.00 0.00 66 1011.1
20260902005957 66 360 2.6 5.2 0.00 0.00 0.00 66 1011.1
20260902005457 66 360 0.0 5.2 0.00 0.00 0.00 66 1011.1
20260902004457 65 360 0.0 4.3 0.00 0.00 0.00 68 1011.1
20260902003957 65 360 2.6 4.3 0.00 0.00 0.00 68 1011.2
20260902003456 65 360 2.6 3.5 0.00 0.00 0.00 68 1011.2
20260902002956 65 167 0.9 3.5 0.00 0.00 0.00 69 1011.2
20260902002456 65 192 1.7 3.5 0.00 0.00 0.00 68 1011.2
20260902001957 65 355 1.7 7.0 0.00 0.00 0.00 68 1011.2
20260902001457 65 90 0.9 7.0 0.00 0.00 0.00 68 1011.2
20260902000957 65 334 0.0 5.2 0.00 0.00 0.00 68 1011.1
20260902000458 65 36 1.7 5.2 0.00 0.00 0.00 69 1011.1
20260901235957 65 171 0.9 3.5 0.00 0.00 0.00 70 1011.1
20260901234956 65 165 1.7 3.5 0.00 0.00 0.00 69 1011.0
20260901234456 65 331 0.0 2.6 0.00 0.00 0.00 69 1011.0
20260901233957 65 355 1.7 4.3 0.00 0.00 0.00 68 1011.1
20260901233457 65 224 1.7 4.3 0.00 0.00 0.00 68 1011.1
20260901232956 66 144 1.7 3.5 0.00 0.00 0.00 67 1011.1
20260901232456 66 336 1.7 5.2 0.00 0.00 0.00 66 1011.0
20260901231956 66 174 1.7 5.2 0.00 0.00 0.00 65 1011.0
20260901231457 66 55 0.9 3.5 0.00 0.00 0.00 63 1011.0
20260901230956 66 192 0.9 4.3 0.00 0.00 0.00 63 1011.0
20260901225956 66 227 0.9 3.5 0.00 0.00 0.00 64 1011.0
20260901225527 66 211 2.6 2.6 0.00 0.00 0.00 64 1011.0